When you browse on this site, cookies collect data to enhance your experience and personalize the content and advertising you see.
Visit our Privacy Policy to learn more. By continuing to use the site, you agree to this use of cookies and data.

Hourly Weather Concord

Today, 5 July, Sunday

Time Temperature Precipitation Wind Pressure Humidity
00:00 +16°C° 0 mm 0 mps 751 mmHg 93%
01:00 +16°C° 0 mm 0 mps 751 mmHg 93%
02:00 +16°C° 0 mm 0 mps 751 mmHg 92%
03:00 +16°C° 0 mm 0 mps 751 mmHg 91%
04:00 +16°C° 0 mm 0 mps 751 mmHg 90%
05:00 +18°C° 0 mm 0 mps 751 mmHg 85%
06:00 +19°C° 0 mm 0 mps 751 mmHg 80%
07:00 +23°C° 0 mm 1 mps 752 mmHg 75%
08:00 +25°C° 0 mm 1 mps 751 mmHg 65%
09:00 +26°C° 0 mm 0 mps 751 mmHg 56%
10:00 +28°C° 0 mm 0 mps 751 mmHg 47%
11:00 +31°C° 0 mm 1 mps 751 mmHg 42%
12:00 +33°C° 0 mm 1 mps 751 mmHg 38%
13:00 +34°C° 0 mm 1 mps 751 mmHg 34%
14:00 +32°C° 0 mm 1 mps 751 mmHg 43%
15:00 +30°C° 0 mm 1 mps 750 mmHg 51%
16:00 +28°C° 0 mm 1 mps 750 mmHg 59%
17:00 +26°C° 0.3 mm 1 mps 750 mmHg 70%
18:00 +24°C° 0.3 mm 1 mps 750 mmHg 80%
19:00 +22°C° 0.3 mm 1 mps 750 mmHg 91%
20:00 +21°C° 0.2 mm 1 mps 751 mmHg 93%
21:00 +21°C° 0.2 mm 1 mps 751 mmHg 94%
22:00 +18°C° 0.2 mm 0 mps 751 mmHg 96%
23:00 +20°C° 0 mm 1 mps 751 mmHg 96%

Tomorrow, 6 July, Monday

Time Temperature Precipitation Wind Pressure Humidity
00:00 +19°C° 0 mm 1 mps 751 mmHg 96%
01:00 +19°C° 0 mm 1 mps 751 mmHg 96%
02:00 +19°C° 0 mm 1 mps 751 mmHg 96%
03:00 +19°C° 0 mm 1 mps 751 mmHg 96%
04:00 +18°C° 0 mm 1 mps 751 mmHg 96%
05:00 +20°C° 0 mm 1 mps 752 mmHg 93%
06:00 +21°C° 0 mm 1 mps 752 mmHg 91%
07:00 +22°C° 0 mm 1 mps 753 mmHg 89%
08:00 +23°C° 0 mm 1 mps 753 mmHg 78%
09:00 +25°C° 0 mm 1 mps 753 mmHg 68%
10:00 +26°C° 0 mm 2 mps 754 mmHg 58%
11:00 +28°C° 0 mm 1 mps 754 mmHg 51%
12:00 +29°C° 0 mm 1 mps 754 mmHg 44%
13:00 +31°C° 0 mm 1 mps 754 mmHg 37%
14:00 +31°C° 0 mm 1 mps 754 mmHg 37%
15:00 +30°C° 0 mm 1 mps 754 mmHg 37%
16:00 +30°C° 0 mm 1 mps 754 mmHg 37%
17:00 +27°C° 0 mm 1 mps 754 mmHg 49%
18:00 +25°C° 0 mm 1 mps 754 mmHg 60%
19:00 +22°C° 0 mm 1 mps 754 mmHg 72%
20:00 +21°C° 0 mm 1 mps 754 mmHg 77%
21:00 +19°C° 0 mm 1 mps 755 mmHg 83%
22:00 +18°C° 0 mm 1 mps 755 mmHg 88%
23:00 +16°C° 0 mm 1 mps 755 mmHg 90%

Day after tomorrow, 7 July, Tuesday

Time Temperature Precipitation Wind Pressure Humidity
00:00 +15°C° 0 mm 0 mps 755 mmHg 92%
01:00 +14°C° 0 mm 0 mps 755 mmHg 93%
02:00 +14°C° 0 mm 0 mps 755 mmHg 94%
03:00 +14°C° 0 mm 0 mps 755 mmHg 94%
04:00 +14°C° 0 mm 0 mps 755 mmHg 94%
05:00 +16°C° 0 mm 0 mps 755 mmHg 86%
06:00 +18°C° 0 mm 0 mps 755 mmHg 78%
07:00 +22°C° 0 mm 1 mps 756 mmHg 70%
08:00 +24°C° 0 mm 1 mps 755 mmHg 63%
09:00 +25°C° 0 mm 2 mps 755 mmHg 57%
10:00 +27°C° 0 mm 3 mps 755 mmHg 50%
11:00 +28°C° 0 mm 3 mps 755 mmHg 49%
12:00 +29°C° 0 mm 3 mps 754 mmHg 47%
13:00 +30°C° 0 mm 3 mps 754 mmHg 46%
14:00 +29°C° 0.2 mm 3 mps 754 mmHg 54%
15:00 +28°C° 0.2 mm 3 mps 753 mmHg 61%
16:00 +28°C° 0.2 mm 3 mps 753 mmHg 69%
17:00 +26°C° 0.8 mm 3 mps 753 mmHg 77%
18:00 +25°C° 0.8 mm 2 mps 753 mmHg 86%
19:00 +23°C° 0.8 mm 2 mps 753 mmHg 94%
20:00 +22°C° 0.4 mm 1 mps 753 mmHg 95%
21:00 +22°C° 0.4 mm 1 mps 753 mmHg 97%
22:00 +21°C° 0.4 mm 1 mps 753 mmHg 98%
23:00 +21°C° 0.2 mm 1 mps 753 mmHg 99%

8 July, Wednesday

Time Temperature Precipitation Wind Pressure Humidity
00:00 +22°C° 0.2 mm 1 mps 753 mmHg 99%
01:00 +22°C° 0.2 mm 1 mps 752 mmHg 99%
02:00 +22°C° 0.1 mm 1 mps 752 mmHg 99%
03:00 +22°C° 0.1 mm 1 mps 752 mmHg 99%
04:00 +22°C° 0.1 mm 1 mps 752 mmHg 99%
05:00 +23°C° 0 mm 1 mps 752 mmHg 99%
06:00 +23°C° 0 mm 1 mps 752 mmHg 98%
07:00 +24°C° 0 mm 1 mps 752 mmHg 97%
08:00 +26°C° 0.1 mm 1 mps 752 mmHg 89%
09:00 +27°C° 0.1 mm 1 mps 752 mmHg 81%
10:00 +29°C° 0.1 mm 1 mps 751 mmHg 74%
11:00 +30°C° 0.2 mm 1 mps 751 mmHg 68%
12:00 +31°C° 0.2 mm 1 mps 751 mmHg 63%
13:00 +32°C° 0.2 mm 1 mps 751 mmHg 57%
14:00 +31°C° 0.5 mm 1 mps 750 mmHg 64%
15:00 +31°C° 0.5 mm 2 mps 750 mmHg 71%
16:00 +30°C° 0.5 mm 2 mps 750 mmHg 78%
17:00 +29°C° 0.2 mm 2 mps 750 mmHg 82%
18:00 +27°C° 0.2 mm 2 mps 750 mmHg 86%
19:00 +26°C° 0.2 mm 1 mps 750 mmHg 90%
20:00 +25°C° 0 mm 1 mps 750 mmHg 92%
21:00 +24°C° 0 mm 1 mps 751 mmHg 94%
22:00 +23°C° 0 mm 1 mps 751 mmHg 96%
23:00 +23°C° 0 mm 1 mps 751 mmHg 96%

9 July, Thursday

Time Temperature Precipitation Wind Pressure Humidity
00:00 +23°C° 0 mm 1 mps 751 mmHg 97%
01:00 +22°C° 0 mm 1 mps 751 mmHg 97%
02:00 +22°C° 0 mm 1 mps 751 mmHg 97%
03:00 +20°C° 0 mm 0 mps 751 mmHg 97%
04:00 +19°C° 0 mm 0 mps 751 mmHg 97%
05:00 +21°C° 0 mm 0 mps 751 mmHg 94%
06:00 +22°C° 0 mm 0 mps 751 mmHg 91%
07:00 +24°C° 0 mm 0 mps 752 mmHg 88%
08:00 +26°C° 0 mm 0 mps 752 mmHg 77%
09:00 +31°C° 0 mm 1 mps 752 mmHg 67%
10:00 +33°C° 0 mm 1 mps 752 mmHg 56%
11:00 +34°C° 0 mm 1 mps 751 mmHg 50%
12:00 +35°C° 0 mm 1 mps 751 mmHg 45%
13:00 +37°C° 0 mm 1 mps 751 mmHg 40%
14:00 +36°C° 0 mm 1 mps 751 mmHg 43%
15:00 +35°C° 0 mm 1 mps 751 mmHg 46%
16:00 +34°C° 0 mm 1 mps 751 mmHg 48%
17:00 +32°C° 0.3 mm 1 mps 751 mmHg 60%
18:00 +30°C° 0.3 mm 1 mps 751 mmHg 72%
19:00 +27°C° 0.3 mm 2 mps 751 mmHg 84%
20:00 +26°C° 0.9 mm 1 mps 752 mmHg 88%
21:00 +25°C° 0.9 mm 1 mps 752 mmHg 92%
22:00 +24°C° 0.9 mm 1 mps 752 mmHg 96%
23:00 +24°C° 0.1 mm 1 mps 752 mmHg 97%

10 July, Friday

Time Temperature Precipitation Wind Pressure Humidity
00:00 +23°C° 0.1 mm 1 mps 752 mmHg 97%
01:00 +23°C° 0.1 mm 1 mps 752 mmHg 98%
02:00 +23°C° 0 mm 1 mps 752 mmHg 98%
03:00 +20°C° 0 mm 0 mps 752 mmHg 98%
04:00 +20°C° 0 mm 0 mps 753 mmHg 98%
05:00 +23°C° 0 mm 1 mps 753 mmHg 96%
06:00 +24°C° 0 mm 1 mps 753 mmHg 95%
07:00 +25°C° 0 mm 1 mps 753 mmHg 93%
08:00 +27°C° 0 mm 1 mps 753 mmHg 83%
09:00 +29°C° 0 mm 2 mps 753 mmHg 73%
10:00 +31°C° 0 mm 2 mps 753 mmHg 63%
11:00 +30°C° 0.9 mm 3 mps 753 mmHg 72%
12:00 +29°C° 0.9 mm 3 mps 753 mmHg 80%
13:00 +28°C° 0.9 mm 3 mps 752 mmHg 88%
14:00 +28°C° 1.2 mm 3 mps 752 mmHg 90%
15:00 +27°C° 1.2 mm 3 mps 752 mmHg 91%
16:00 +27°C° 1.2 mm 3 mps 752 mmHg 93%
17:00 +26°C° 0.4 mm 3 mps 752 mmHg 94%
18:00 +25°C° 0.4 mm 3 mps 752 mmHg 95%
19:00 +24°C° 0.4 mm 2 mps 752 mmHg 96%
20:00 +24°C° 0.3 mm 2 mps 751 mmHg 97%
21:00 +23°C° 0.3 mm 2 mps 751 mmHg 98%
22:00 +23°C° 0.3 mm 2 mps 751 mmHg 99%
23:00 +23°C° 2.2 mm 2 mps 750 mmHg 99%
Show more